TimeMST,TemperatureF,Dew PointF,Humidity,Sea Level PressureIn,VisibilityMPH,Wind Direction,Wind SpeedMPH,Gust SpeedMPH,PrecipitationIn,Events,Conditions,WindDirDegrees,DateUTC
12:54 AM,37.0,19.0,48,30.12,10.0,West,15.0,-,N/A,,Clear,260,2013-03-06 07:54:00
1:54 AM,37.9,18.0,45,30.09,10.0,West,12.7,19.6,N/A,,Clear,260,2013-03-06 08:54:00
2:54 AM,34.0,19.9,56,30.07,10.0,WSW,10.4,-,N/A,,Clear,240,2013-03-06 09:54:00
3:54 AM,37.0,19.0,48,30.04,10.0,West,10.4,-,N/A,,Clear,260,2013-03-06 10:54:00
4:54 AM,37.9,19.0,47,30.02,10.0,SW,15.0,-,N/A,,Clear,230,2013-03-06 11:54:00
5:54 AM,34.0,19.9,56,30.05,10.0,West,9.2,-,N/A,,Clear,260,2013-03-06 12:54:00
6:54 AM,33.1,21.9,64,30.06,10.0,WSW,5.8,-,N/A,,Clear,250,2013-03-06 13:54:00
7:54 AM,36.0,23.0,59,30.07,10.0,West,6.9,-,N/A,,Clear,270,2013-03-06 14:54:00
8:54 AM,42.1,23.0,47,30.04,10.0,WSW,9.2,-,N/A,,Clear,240,2013-03-06 15:54:00
9:54 AM,48.0,24.1,39,30.01,10.0,SW,6.9,-,N/A,,Clear,230,2013-03-06 16:54:00
10:54 AM,52.0,21.9,31,29.96,10.0,SSW,3.5,-,N/A,,Clear,200,2013-03-06 17:54:00
11:54 AM,57.0,25.0,29,29.91,10.0,Variable,3.5,-,N/A,,Clear,0,2013-03-06 18:54:00
12:54 PM,59.0,26.1,28,29.86,10.0,ESE,10.4,-,N/A,,Clear,110,2013-03-06 19:54:00
1:54 PM,63.0,23.0,22,29.80,10.0,East,8.1,-,N/A,,Clear,80,2013-03-06 20:54:00
2:54 PM,64.9,24.1,21,29.80,10.0,East,9.2,-,N/A,,Clear,90,2013-03-06 21:54:00
3:54 PM,64.9,21.0,19,29.77,10.0,ESE,8.1,-,N/A,,Clear,110,2013-03-06 22:54:00
4:54 PM,64.9,19.0,17,29.75,10.0,Variable,3.5,-,N/A,,Clear,0,2013-03-06 23:54:00
5:54 PM,55.0,24.1,30,29.81,10.0,West,5.8,-,N/A,,Clear,260,2013-03-07 00:54:00
6:54 PM,55.0,24.1,30,29.84,10.0,WSW,16.1,-,N/A,,Clear,250,2013-03-07 01:54:00
7:54 PM,53.1,23.0,31,29.83,10.0,South,4.6,-,N/A,,Clear,190,2013-03-07 02:54:00
8:54 PM,50.0,23.0,35,29.84,10.0,SW,10.4,-,N/A,,Clear,220,2013-03-07 03:54:00
9:54 PM,46.9,21.9,37,29.83,10.0,SW,11.5,-,N/A,,Clear,230,2013-03-07 04:54:00
10:54 PM,43.0,21.9,43,29.82,10.0,WSW,12.7,-,N/A,,Clear,240,2013-03-07 05:54:00
11:54 PM,41.0,21.9,47,29.80,10.0,SW,10.4,-,N/A,,Clear,230,2013-03-07 06:54:00